Regional Weather Roundup
Issued by NWS

Home | Current Version | Previous Version | Graphics & Text | Print | Product List | Glossary On
Versions: 1 2 3 4 5 6 7 8 9 10 11 12 13 14 15 16 17 18 19 20 21 22 23 24 25 26 27 28 29 30 31 32 33 34 35 36 37 38 39 40 41 42 43 44 45 46 47 48 49 50
000
ASUS43 KOAX 261302
RWRNE

WEATHER ROUNDUP FOR NEBRASKA
NATIONAL WEATHER SERVICE OMAHA NE
800 AM CDT SUN APR 26 2015

NOTES: SATELLITE DATA IS BEING USED TO AUGMENT CLOUD COVER ABOVE
       12000 FEET.
       "FAIR" INDICATES FEW OR NO CLOUDS BELOW 12,000 FEET WITH NO
       SIGNIFICANT WEATHER AND/OR OBSTRUCTIONS TO VISIBILITY.

  * THESE STATIONS DO NOT REPORT WEATHER SUCH AS RAIN...SNOW OR FOG.

NEZ001>004-019>022-054>056-261400-
NEBRASKA PANHANDLE

CITY           SKY/WX    TMP DP  RH WIND       PRES   REMARKS
SCOTTSBLUFF    LGT RAIN  47  47 100 MISG      29.85R
ALLIANCE       LGT RAIN  46  45  96 SE13      29.88R FOG
CHADRON        CLOUDY    47  47 100 NE10      29.89R FOG
KIMBALL        RAIN      45  44  97 CALM      29.84R
SIDNEY         FOG       44  43  96 E16       29.87R VSB<1/4
$$

NEZ057>060-069>072-079>082-261400-
SOUTHWEST NEBRASKA

CITY           SKY/WX    TMP DP  RH WIND       PRES   REMARKS
IMPERIAL       CLOUDY    43  41  93 E13       29.90R FOG
MCCOOK         CLOUDY    45  43  93 E15G26    29.91R FOG
$$

NEZ005>010-023>029-035>040-094-261400-
NORTH CENTRAL NEBRASKA

CITY           SKY/WX    TMP DP  RH WIND       PRES   REMARKS
VALENTINE      CLOUDY    45  40  82 SE9       29.98R
AINSWORTH      CLOUDY    44  40  87 SE10      29.99R
BROKEN BOW     CLOUDY    46  40  79 E10       29.96R
ORD            CLOUDY    45  39  79 E6        29.99R
$$

NEZ041-046>049-061>064-073>077-083>087-261400-
SOUTH CENTRAL NEBRASKA

CITY           SKY/WX    TMP DP  RH WIND       PRES   REMARKS
GRAND ISLAND   CLOUDY    45  39  79 E12       29.99R
AURORA         PTSUNNY   46  43  90 E14       29.98R
HASTINGS       CLOUDY    45  41  86 E10       29.97R
KEARNEY *      CLOUDY    45  39  81 E13       29.98R
YORK           MOSUNNY   45  41  87 E13       29.98R
$$

NEZ011>018-030>034-042>045-261400-
NORTHEAST NEBRASKA

CITY           SKY/WX    TMP DP  RH WIND       PRES   REMARKS
NORFOLK        SUNNY     45  40  82 E7        30.01R
BLAIR          SUNNY     44  38  80 NE8       30.00R
COLUMBUS *     SUNNY     45  36  70 NE9       30.01R
TEKAMAH        SUNNY     43  41  93 N7        30.03R FOG
$$

NEZ050>053-065>068-078-088>093-261400-
SOUTHEAST NEBRASKA

CITY           SKY/WX    TMP DP  RH WIND       PRES   REMARKS
LINCOLN        SUNNY     45  38  76 E13       29.99R
OMAHA EPPLEY   MOSUNNY   44  41  89 NW5       30.01R
BEATRICE       CLOUDY    45  42  88 E10       29.96R
FALLS CITY     CLOUDY    47  41  80 E14       29.96R
NEBRASKA CITY  SUNNY     44  39  83 E8        29.99R
PLATTSMOUTH    SUNNY     43  38  84 NE10      29.99R
$$

NEZ044-045-051>053-067-261400-
OMAHA AREA

CITY           SKY/WX    TMP DP  RH WIND       PRES   REMARKS
OMAHA EPPLEY   MOSUNNY   44  41  89 NW5       30.01R
BLAIR          SUNNY     44  38  80 NE8       30.00R
OFFUTT AFB     SUNNY     44  40  84 NE8       30.00R
PLATTSMOUTH    SUNNY     43  38  84 NE10      29.99R
WAHOO          FAIR      45  39  82 NE9       30.00R
$$



USA.gov is the U.S. government's official web portal to all federal, state and local government web resources and services.